Theta_e
340 338 337 341 346 349 351 352 351 351 352 352 353 352 350 351 352 352 353 352 350 349 348 346 345 344 345 345 346 346 348 350 347 347 349 349 346 345 347 350 351 350
345 343 337 338 341 341 347 354 354 353 352 352 353 353 350 350 351 352 353 354 353 351 348 346 346 344 343 343 344 344 345 345 344 348 352 350 345 345 347 349 351 352
346 348 342 341 342 340 344 352 354 354 354 353 352 353 353 353 352 351 352 352 353 353 351 349 347 345 343 344 344 343 345 344 344 347 352 352 348 347 350 352 353 353
344 349 349 347 348 346 347 351 352 353 354 354 353 353 353 353 354 353 352 350 350 353 353 352 350 347 345 347 347 345 345 345 345 345 348 348 348 347 349 351 351 350
345 349 351 352 351 350 350 351 352 352 353 354 353 353 352 352 354 355 354 353 349 349 351 353 354 351 349 350 349 347 345 345 346 348 348 348 348 347 346 346 345 346
351 348 349 352 352 350 350 350 351 352 352 353 352 353 353 352 353 354 355 356 353 350 351 353 355 354 353 353 351 349 347 347 351 354 353 352 351 349 349 350 350 350
353 350 349 351 351 350 350 349 349 350 351 352 352 352 353 353 353 354 354 355 356 354 352 353 354 354 355 355 352 351 348 347 350 353 353 353 352 350 351 353 354 354
352 352 351 351 351 350 349 349 349 349 349 351 351 351 352 353 353 354 354 354 355 354 352 352 353 353 353 353 352 351 351 349 348 349 350 351 350 349 350 351 352 353
350 351 351 351 351 349 348 348 347 348 348 349 350 351 352 352 352 353 354 354 354 353 352 353 354 353 353 353 352 352 352 352 351 350 349 350 351 351 350 349 350 350
351 350 350 350 350 348 347 346 346 346 346 347 348 349 349 350 351 353 352 353 354 353 353 354 354 353 353 353 353 354 354 354 354 355 354 354 353 353 352 352 352 351
352 351 351 351 350 349 348 346 346 346 346 346 346 346 347 347 348 350 352 353 353 353 353 353 353 353 353 354 355 355 355 354 353 353 354 354 353 352 352 352 353 352
351 351 352 352 351 351 349 348 346 346 346 345 345 345 345 346 346 347 349 351 352 352 352 352 353 353 353 354 355 355 355 354 350 349 350 351 352 353 352 353 354 354
354 354 354 353 353 352 350 349 349 348 346 345 345 344 344 345 346 345 345 347 349 350 351 352 352 352 353 354 355 355 355 354 352 351 352 351 352 353 353 354 354 354
356 355 352 350 351 351 350 350 350 349 348 346 344 345 344 345 346 345 345 345 345 347 349 351 351 350 351 352 354 354 354 353 351 351 352 352 353 352 352 353 353 353
353 350 347 346 347 348 350 350 350 350 350 348 346 345 344 344 346 346 346 345 344 344 346 348 351 351 350 349 351 352 352 351 350 351 351 350 350 349 349 353 354 353
348 346 347 347 346 346 349 350 348 349 350 350 349 347 345 344 345 346 347 346 345 344 344 346 349 351 350 349 350 352 351 350 350 350 349 350 352 351 351 353 353 352
350 350 350 350 348 347 348 349 348 348 350 351 351 350 349 348 346 345 346 347 346 346 344 344 345 346 348 350 352 353 352 350 349 348 348 350 352 352 351 350 350 350
352 352 353 353 352 349 348 348 349 349 350 351 350 350 350 350 348 347 346 346 347 346 345 345 346 346 347 349 350 352 351 351 350 349 348 348 349 349 349 349 349 350
351 351 352 353 354 352 351 350 348 349 350 351 350 348 349 350 349 348 347 346 346 346 347 347 347 348 349 349 349 350 350 350 350 350 350 350 351 350 350 350 350 349
351 351 351 351 352 353 352 351 350 349 350 350 350 349 348 349 349 349 349 348 348 348 349 349 348 349 349 348 348 348 348 348 349 351 352 352 351 351 350 350 350 350
352 352 351 351 351 351 351 351 350 350 350 350 350 348 348 350 351 352 351 351 351 351 350 349 348 348 348 348 347 347 347 348 349 350 351 350 350 349 349 349 350 350
352 351 350 350 349 349 350 350 349 349 349 349 348 349 350 351 352 353 352 351 352 350 349 348 348 348 348 348 348 348 347 348 349 349 350 350 349 349 350 350 349 349
351 350 351 350 349 349 349 349 349 350 349 348 348 350 351 352 352 352 351 350 350 349 348 348 349 349 349 348 347 347 347 347 348 348 349 349 348 348 349 350 349 349
348 349 349 349 349 349 349 349 349 350 350 349 349 350 350 350 350 351 350 349 349 348 348 349 349 348 348 347 347 347 347 347 347 347 348 349 348 347 347 348 348 348
345 346 347 346 347 347 347 347 347 347 347 347 348 348 348 348 348 348 348 349 348 348 348 347 346 344 343 344 344 344 345 345 346 346 346 347 347 347 347 345 345 345
343 343 343 343 344 345 344 344 345 345 344 344 345 344 344 345 346 346 346 347 346 346 344 341 338 337 338 338 338 338 340 340 341 343 344 344 344 344 344 342 343 343
Wind_Speed
16 16 16 16 15 13 11 10 10 11 11 9 8 8 8 8 7 9 11 10 8 10 9 7 8 9 9 9 9 10 11 11 11 9 9 9 7 8 9 8 7 7
17 16 16 16 16 15 13 12 10 11 11 11 11 10 8 10 11 11 12 11 9 9 9 8 8 9 9 9 9 10 10 11 11 9 9 10 9 9 9 8 7 8
18 17 16 16 16 15 14 12 12 12 11 11 11 11 9 10 12 13 13 13 11 9 9 10 9 9 10 9 9 9 9 10 10 9 10 11 11 9 9 9 9 11
19 17 16 15 14 14 13 12 13 13 12 11 11 11 10 10 11 12 12 13 12 11 11 11 10 10 10 10 9 9 10 10 10 9 11 12 11 10 10 11 13 14
19 18 16 15 14 14 13 13 13 13 12 12 12 12 12 12 12 12 12 12 12 12 13 13 11 10 10 10 11 10 10 11 10 10 10 11 12 12 12 13 13 13
18 18 17 16 15 15 14 14 14 13 13 13 13 13 13 14 14 13 13 13 12 11 11 12 12 11 10 11 12 11 11 10 10 12 13 12 12 12 12 12 12 12
16 17 17 17 16 15 15 15 14 14 14 14 14 14 13 14 14 14 14 13 13 12 10 11 13 13 12 13 13 12 12 12 12 14 15 14 13 12 12 12 13 14
15 15 16 16 16 15 16 15 15 14 14 14 15 14 14 15 15 14 14 14 14 14 12 11 14 15 15 15 14 14 13 13 13 14 15 16 16 14 13 13 14 15
16 15 15 15 15 15 15 15 15 15 15 15 14 14 14 15 14 15 15 14 15 16 13 12 14 15 14 15 15 15 15 14 15 15 15 15 16 15 14 14 14 15
19 18 18 18 17 17 16 16 16 15 15 15 15 14 15 14 14 15 16 15 15 15 14 15 16 15 14 15 15 15 16 16 16 15 14 15 15 15 15 13 14 15
20 18 18 20 20 19 20 20 19 16 16 16 15 16 16 15 15 15 15 15 15 15 14 15 15 15 15 15 15 16 16 16 15 14 14 15 14 15 16 15 15 16
16 14 16 19 20 19 20 21 20 18 18 17 16 17 17 16 16 16 15 16 15 15 15 14 15 16 16 16 17 17 17 17 16 15 15 15 14 14 16 16 16 16
13 12 15 18 19 19 19 19 20 20 21 20 18 18 18 16 16 17 16 16 16 16 15 15 18 18 17 17 19 19 18 18 16 15 15 15 15 15 15 15 16 17
15 15 17 18 19 20 19 18 20 20 20 21 21 20 19 17 15 17 16 15 15 15 16 19 22 20 17 18 19 19 18 17 16 16 16 17 17 17 17 16 17 18
18 18 18 17 19 21 21 20 20 20 19 21 22 21 21 20 18 17 18 17 16 16 17 20 20 18 17 17 18 19 18 17 16 16 16 18 19 19 18 17 18 18
19 19 17 16 18 19 20 20 20 21 21 22 21 20 20 21 20 19 19 20 21 20 20 19 17 17 18 17 17 18 19 18 18 17 17 18 19 19 19 19 20 19
18 18 17 17 18 18 18 18 19 21 22 22 21 20 18 19 21 21 20 20 21 21 21 19 17 17 17 17 17 18 18 19 19 19 19 18 19 19 20 20 20 19
16 18 18 17 18 18 19 19 18 19 20 21 22 21 20 20 21 21 20 20 20 20 20 19 17 14 14 15 16 16 17 17 18 19 19 19 21 21 21 20 19 16
17 19 19 18 18 18 19 19 19 20 20 21 21 21 22 22 22 21 19 20 21 20 18 18 17 15 14 13 14 14 15 16 16 17 18 19 20 20 20 21 20 16
16 17 18 18 18 18 18 20 21 21 21 20 21 21 21 22 23 21 19 19 19 19 18 18 17 16 16 15 14 14 15 16 16 16 16 17 17 17 17 18 19 17
13 13 15 17 17 17 18 19 20 21 20 20 21 20 19 21 23 22 18 15 13 14 16 16 15 15 15 15 15 15 15 16 16 16 16 17 16 14 14 15 15 15
9 10 12 15 16 17 17 17 18 20 21 21 20 18 17 20 20 19 16 12 9 11 14 15 14 15 15 15 15 15 14 14 15 15 16 15 12 9 9 11 13 13
6 5 6 8 10 12 14 14 15 16 16 17 19 19 18 18 18 16 14 13 12 14 15 14 13 14 15 14 14 13 13 14 14 15 15 15 13 11 9 8 8 10
4 3 4 5 5 7 10 12 13 13 11 11 15 19 20 20 19 17 15 15 15 15 15 14 12 12 12 11 11 11 10 11 11 12 13 14 14 14 12 8 6 8
4 4 5 4 3 4 4 5 6 8 8 8 10 13 14 14 14 13 12 12 12 11 11 10 8 7 6 6 7 8 7 6 7 8 10 12 12 12 12 11 10 10
8 8 8 8 8 7 4 3 4 6 5 6 6 5 5 5 5 5 5 6 7 6 5 5 4 3 4 5 6 7 6 6 5 5 7 9 9 10 10 9 9 9
Wind_Direction
199 203 201 199 200 200 201 209 206 197 206 213 217 225 217 217 218 206 223 243 234 224 227 226 229 228 228 227 227 231 228 229 243 249 249 251 242 240 246 240 246 261
199 205 209 207 209 209 202 204 210 211 216 211 205 216 217 211 213 210 218 232 236 234 234 233 233 233 237 239 233 230 231 234 240 247 255 259 255 251 250 244 251 267
199 204 210 210 213 218 210 207 213 213 218 223 215 211 209 212 220 221 219 222 225 234 240 238 237 239 241 244 244 237 235 241 244 240 243 254 259 255 250 249 253 257
202 201 209 210 210 218 216 213 220 218 215 224 225 220 217 217 223 232 236 230 223 223 231 238 242 243 240 241 247 246 242 248 252 247 245 254 262 259 254 255 255 254
207 201 205 208 207 214 217 216 222 223 220 222 224 226 228 222 218 227 241 244 239 230 229 238 246 246 244 243 247 250 252 256 257 257 256 258 265 269 268 264 262 260
212 208 206 207 209 213 216 218 221 223 225 225 224 226 230 229 224 223 229 241 250 245 232 236 245 249 247 246 250 253 255 255 253 256 262 263 267 273 271 267 269 270
213 216 213 210 212 217 219 222 224 225 227 229 228 227 228 235 237 230 227 234 248 251 237 229 237 244 244 247 254 256 256 256 249 251 258 260 263 268 268 266 269 270
212 220 222 218 217 220 222 224 227 229 230 234 236 232 228 236 240 234 230 230 237 246 244 235 237 240 241 248 256 257 258 260 257 256 257 255 257 264 267 268 268 267
207 213 221 222 222 227 229 230 233 234 233 235 239 238 240 245 243 238 239 236 235 240 241 240 244 245 245 248 251 255 260 262 263 264 262 257 258 266 271 270 271 271
206 207 214 215 216 221 225 227 230 235 237 237 238 238 242 247 245 245 249 248 246 245 240 238 242 247 252 251 249 254 257 257 261 265 266 266 266 269 272 271 270 272
209 208 216 220 218 217 219 219 219 224 232 237 240 241 241 243 243 246 251 250 253 257 251 246 247 247 251 253 251 252 250 251 263 270 270 272 274 273 274 273 272 275
212 211 219 226 228 230 229 225 220 219 220 224 231 235 237 242 243 243 246 247 250 257 256 254 255 252 250 250 250 252 254 257 266 270 266 266 269 270 273 274 273 274
219 220 225 230 236 240 239 233 228 225 220 218 224 228 228 235 244 245 247 249 251 257 257 252 250 247 244 248 252 255 258 262 267 268 269 270 269 267 268 271 272 273
219 227 233 235 239 243 245 242 236 234 229 224 227 230 226 225 234 239 241 246 252 255 253 249 251 252 249 249 254 256 258 262 266 268 271 273 271 267 265 266 270 272
229 237 240 239 241 244 247 248 244 241 240 235 234 237 233 228 229 231 230 233 238 240 241 246 253 258 258 255 252 254 260 265 266 266 269 271 270 269 271 271 270 273
239 245 244 241 242 244 248 251 250 246 245 243 242 244 240 233 232 234 231 230 234 236 239 245 250 253 258 260 254 253 259 264 264 265 267 268 269 273 276 274 273 277
241 245 245 243 242 244 250 253 251 249 248 248 249 251 249 241 240 241 236 233 238 241 242 248 254 254 256 259 258 257 259 261 263 266 266 265 267 271 274 273 273 276
245 247 248 248 246 246 250 252 251 248 247 249 252 253 253 249 248 245 238 236 242 246 247 251 257 260 257 258 260 259 258 258 261 267 270 271 271 271 274 278 279 276
249 252 250 251 254 253 251 251 251 247 245 249 252 251 249 247 247 244 238 238 243 246 248 250 254 257 258 259 259 258 258 259 261 265 271 275 276 277 279 279 278 272
247 248 248 249 252 255 255 255 256 254 251 249 248 246 245 243 242 239 234 235 242 246 247 248 251 255 258 260 261 263 264 262 261 262 267 272 277 280 279 276 274 273
250 249 252 254 254 258 261 261 260 257 251 247 246 247 248 245 239 233 228 229 236 243 246 250 255 258 260 260 262 265 265 263 262 263 265 268 272 275 273 270 271 275
255 255 256 257 259 262 261 259 256 253 249 246 245 245 244 243 238 230 224 223 229 245 253 256 259 261 262 261 263 265 266 264 262 262 263 264 264 273 281 277 274 276
238 238 237 240 247 251 250 249 248 250 254 251 243 237 235 238 238 231 225 227 238 250 257 257 255 257 260 261 263 264 265 263 260 261 265 267 266 271 283 295 295 286
214 199 185 205 222 225 233 239 233 230 239 241 229 225 226 230 232 228 222 227 235 241 248 254 257 257 260 264 268 270 270 269 270 271 270 271 272 269 267 271 280 278
125 128 126 133 148 173 216 236 209 196 206 215 214 214 216 222 227 222 213 221 235 244 252 263 273 276 279 289 296 298 300 293 290 287 276 269 268 267 266 268 272 274
94 99 100 101 105 108 109 116 127 136 163 196 199 180 174 192 208 205 197 217 241 251 249 249 262 283 300 308 304 305 311 310 308 300 279 267 261 263 268 272 272 275